Погода в Ржевке

Россия / Липецкая область     53°18′26″N   40°05′09″E
темп.,
°C
ветер,
м/с
пор.,
м/с
влажн.,
%
обл.,
%
осадки,
мм/ч
давл.,
гПа
погр.,
м
18 апреля, вс
вс1800:00+7ююз2290100 0.6 101937
03:00+6ююв12905 0.6 101916
06:00+6юв34945 0.0 101985
09:00+9юв34745 0.0 1018567
12:00+12ююв345593 0.3 10181622
15:00+13юв3446100 0.4 10181844
18:00+11юв2362100 0.1 1018258
21:00+9вюв2273100 0.1 101937
19 апреля, пн
пн1900:00+8в2275100 0.0 101829
03:00+7всв2492100 0.1 101981
06:00+7св4890100 0.6 1018244
09:00+8всв5887100 1.4 1018602
12:00+6всв6987100 0.4 1019666
15:00+6всв61189100 0.4 1019686
18:00+6всв51091100 0.1 1018577
21:00+7в61291100 1.1 1019693
20 апреля, вт
вт2000:00+7в51190100 0.0 1018549
03:00+6в61190100 0.1 1018618
06:00+5в71194100 0.2 1017495
09:00+4в61195100 0.3 1018491
12:00+6в71087100 0.0 1016636
15:00+6в81488100 0.0 1015709
18:00+4в91791100 1.5 1010739
21:00+5вюв122392100 12.1 10061188
21 апреля, ср
ср2100:00+8юв111991100 5.1 10031031
03:00+9юв91593100 5.4 1001956
06:00+9ююв81389100 2.4 1000873
09:00+8ююв71294100 2.9 1000825
12:00+4юз101593100 0.2 10061038
15:00+7юз81382100 0.2 10111179
18:00+7юз5108197 0.1 1013567
21:00+6ю4890100 0.1 1015200
22 апреля, чт
чт2200:00+6ю4987100 0.1 1016276
03:00+4ююз499187 0.1 1017232
06:00+5ю498960 0.1 1018363
09:00+8ююз6877100 0.1 1019397
12:00+8юз4983100 0.7 1020462
15:00+13ююз696491 1.3 10191477
18:00+12ююз5107195 1.3 1020538
21:00+9ю4980100 2.2 1021177